Temp
25 27 27 30 30 32 33 35 36 35 34 34 35 34 32 32 31 27 30 30 30 27 25 25 25 25 25 26 26 26 25 25 25 25 24 24 23 23 23 23 23 22 22 22 22 21 21 21 21
25 27 30 31 30 32 34 35 35 34 34 34 34 35 33 30 32 31 30 30 29 27 24 24 25 25 25 25 25 25 25 25 25 25 24 24 23 23 23 23 22 22 22 22 21 21 21 21 21
25 27 30 31 32 32 34 34 33 34 34 35 35 33 31 30 31 30 30 30 29 28 26 25 25 25 25 25 25 24 25 25 25 24 24 24 24 23 23 22 22 22 22 21 21 21 21 21 21
29 31 31 30 32 34 34 34 34 34 34 35 34 30 31 31 31 30 30 29 28 27 26 25 24 24 24 24 24 24 24 24 24 24 24 24 23 23 23 22 22 22 21 21 21 21 21 21 21
30 31 30 31 33 33 34 33 33 33 33 33 34 30 29 31 30 29 29 28 27 27 25 25 24 24 23 24 24 24 24 24 23 23 23 23 23 23 23 22 22 21 21 21 21 20 20 20 20
30 32 30 32 33 33 33 33 33 32 32 33 33 32 29 29 29 29 29 28 26 26 25 24 24 24 24 23 23 24 24 24 24 23 23 23 23 22 22 22 22 21 21 20 20 20 20 20 20
29 31 31 33 33 33 33 33 32 32 32 31 32 31 30 29 29 29 29 28 27 26 25 25 24 24 23 23 23 23 23 23 23 23 23 23 23 23 22 22 22 21 21 21 20 20 20 20 20
31 31 30 32 33 32 32 32 32 31 30 31 31 31 27 28 29 29 29 29 27 26 26 25 25 25 24 24 24 23 23 22 22 22 22 22 22 22 22 21 21 21 21 21 21 20 20 20 20
31 28 30 33 33 31 31 31 31 31 31 31 31 29 28 28 29 28 29 28 27 26 25 22 22 22 23 24 24 23 23 22 22 22 22 22 22 21 21 21 21 21 21 21 21 21 21 20 20
29 29 31 31 31 31 30 30 31 30 30 30 30 29 28 28 28 27 27 26 24 24 22 20 19 20 21 23 23 25 24 23 23 23 21 21 21 21 21 22 22 22 22 21 21 21 21 20 20
30 28 30 30 27 30 30 30 30 29 29 30 29 28 28 28 26 25 25 23 22 22 19 17 17 17 17 20 19 21 22 24 24 23 23 22 21 21 21 22 22 21 21 20 20 20 20 20 20
28 30 30 30 28 28 29 30 29 29 29 29 28 28 28 27 24 24 22 21 20 19 16 15 15 15 15 16 17 18 19 21 22 23 22 22 22 20 20 20 21 20 20 20 20 20 20 20 20
28 29 30 29 28 27 28 27 27 28 29 28 28 27 26 24 23 22 21 19 18 16 15 13 13 12 13 14 15 15 16 17 17 17 18 19 19 19 19 19 19 20 20 20 20 20 20 20 20
29 28 29 28 28 28 27 27 27 28 28 28 27 27 23 22 20 19 18 18 17 15 14 13 12 12 12 13 13 14 14 15 15 15 16 16 16 17 18 17 18 18 18 18 19 20 20 20 20
27 26 27 27 28 27 27 25 26 28 27 27 27 26 22 21 19 18 17 17 16 14 13 12 12 11 12 12 13 13 13 13 13 13 14 14 15 15 15 16 16 17 17 18 18 17 18 19 20
25 26 25 29 28 27 26 26 29 28 27 27 27 26 21 19 18 17 16 16 16 14 13 12 10 10 11 12 12 12 12 13 12 12 12 12 12 13 14 15 16 16 16 17 17 18 18 18 17
25 25 27 28 28 27 26 27 27 28 27 26 27 26 22 19 18 16 16 15 14 13 12 11 10 9 10 12 12 12 12 12 12 12 12 11 11 12 13 14 14 14 15 16 16 16 16 16 16
26 26 27 28 28 27 26 26 28 28 28 27 26 24 21 19 17 15 15 14 13 13 12 12 11 10 10 10 11 13 12 11 11 11 11 10 10 10 10 11 11 11 12 12 13 13 14 15 16
27 27 27 29 29 26 25 26 26 27 28 25 24 23 21 19 17 16 14 13 13 12 12 11 11 10 10 11 10 11 11 12 10 10 10 9 9 8 8 7 8 8 9 9 9 10 10 12 13
26 25 25 27 28 28 26 25 26 27 28 25 24 21 20 18 18 16 14 13 12 11 11 11 10 10 9 9 10 11 11 12 11 10 9 9 8 7 7 6 6 6 7 7 7 8 8 9 10
25 25 25 26 27 26 24 24 25 26 27 23 22 22 19 18 17 16 14 11 11 10 9 9 9 9 7 7 8 9 11 11 10 10 9 9 8 7 6 5 5 5 5 6 6 6 6 7 8
23 26 26 25 24 23 26 22 26 24 23 21 20 19 18 17 16 15 13 11 11 10 9 9 9 8 7 6 6 7 7 8 7 7 7 8 7 6 5 4 4 4 4 5 5 5 5 6 7
24 25 24 24 23 23 23 23 24 26 22 21 20 19 18 17 15 13 11 11 10 9 9 9 9 8 7 6 5 5 5 5 5 4 5 4 4 4 3 3 3 3 3 3 4 4 4 5 5
25 22 22 22 22 19 22 22 23 25 25 22 21 20 18 14 13 12 11 11 10 9 8 8 8 7 6 5 5 4 4 4 4 4 3 2 2 2 1 1 1 2 2 2 2 3 3 4 5
23 20 19 19 19 19 24 23 24 25 25 24 21 19 17 14 12 12 12 11 10 9 7 7 7 6 5 4 3 3 3 3 3 2 2 1 1 1 0 0 0 1 1 1 2 2 3 3 3
21 21 20 19 20 22 25 22 23 24 23 23 21 19 15 13 12 12 11 11 10 8 6 6 6 5 4 3 3 2 2 2 1 1 1 1 0 0 -0 0 0 0 0 0 1 1 1 1 1
21 20 22 20 21 19 21 23 23 21 20 20 19 17 14 12 11 11 10 10 9 7 5 4 4 4 3 2 2 2 1 1 1 0 0 -0 -0 -0 -1 -0 -0 -0 0 0 0 0 -0 -0 -0
22 23 19 19 17 17 20 21 21 19 17 18 17 15 13 12 11 11 11 10 8 6 4 3 3 3 2 2 2 1 1 1 1 0 -0 -0 -1 -1 -1 -1 -1 -1 -1 -0 -0 -0 -1 -1 -1
20 20 20 20 19 18 18 19 21 19 19 18 17 16 13 11 11 11 11 10 8 6 4 3 3 2 2 2 1 1 1 1 1 -0 -0 -1 -1 -1 -0 -0 -1 -2 -2 -1 -1 -1 -1 -1 -1
22 21 20 17 17 17 17 18 21 19 20 19 19 18 14 12 12 12 11 10 8 6 5 3 3 3 2 2 2 2 2 2 2 1 1 0 0 -0 0 0 -1 -2 -2 -2 -2 -1 -1 -1 -1
Height
769 766 764 760 778 761 753 736 723 735 741 735 735 742 750 751 757 785 762 760 763 765 767 770 773 776 777 778 780 782 785 787 789 792 794 796 797 799 800 801 802 804 806 807 809 811 812 813 815
767 766 762 758 776 768 749 729 737 738 739 734 739 738 748 766 753 759 763 764 765 768 770 773 774 777 779 781 783 785 786 788 791 792 795 797 798 800 801 803 803 804 805 808 810 812 813 814 815
766 765 766 762 762 764 753 736 741 740 738 736 740 741 754 766 760 763 767 766 768 770 772 775 777 779 781 783 785 787 789 790 792 793 795 797 798 800 802 803 805 806 807 808 810 811 813 814 815
765 758 759 770 763 740 740 738 741 742 740 736 739 762 760 761 764 766 768 769 771 772 774 777 779 782 783 784 786 788 791 792 793 794 795 797 798 800 802 803 804 806 807 809 810 811 812 813 814
762 759 768 764 750 740 735 739 744 749 748 746 743 765 769 767 769 770 772 773 775 777 776 779 781 783 784 785 787 788 790 791 793 794 796 797 799 800 801 803 804 805 807 809 810 811 812 813 814
763 753 771 761 747 738 738 740 745 753 752 750 753 756 768 771 772 772 774 776 778 780 780 780 782 784 786 786 787 788 789 790 791 792 794 796 798 800 802 803 804 805 806 807 808 810 811 811 812
766 761 763 749 744 747 746 742 753 754 754 760 755 763 767 771 773 774 775 776 779 781 782 784 784 784 785 787 786 788 789 790 791 792 793 794 795 797 799 800 803 804 805 805 806 807 808 809 810
756 758 765 748 748 752 745 748 751 756 765 756 757 765 777 774 773 773 774 776 779 782 784 785 786 786 785 785 786 786 788 789 790 790 792 793 794 795 797 798 799 801 803 804 804 806 805 806 807
753 774 765 747 742 754 750 753 749 753 758 757 758 764 772 775 774 775 775 776 780 783 786 785 785 784 784 786 785 785 786 787 787 788 789 790 791 793 794 795 796 797 799 800 801 802 804 804 803
761 767 755 748 743 748 753 756 754 761 759 762 762 766 772 773 776 779 778 780 783 786 786 786 786 786 785 784 785 784 782 783 783 783 785 787 789 789 792 791 792 793 795 796 798 798 799 799 799
755 766 753 751 758 751 753 758 756 765 769 762 768 769 773 775 779 784 786 788 791 791 790 790 789 788 786 785 782 780 782 779 778 778 779 782 784 787 789 790 790 791 791 792 793 794 793 793 793
764 752 749 749 756 758 761 758 762 762 763 760 767 771 775 777 785 789 793 795 797 797 797 796 794 790 789 786 783 782 779 777 777 777 782 782 783 784 787 787 787 789 789 789 790 788 788 786 787
759 756 748 754 756 760 761 767 768 766 759 765 770 773 776 784 791 795 799 800 802 801 801 800 797 793 790 788 785 784 781 780 780 776 778 778 780 784 784 785 784 784 786 784 785 784 784 784 783
751 755 752 753 756 757 766 765 764 760 759 766 769 772 782 790 796 801 804 805 805 805 804 801 798 795 792 790 788 786 784 782 781 779 778 780 781 783 783 783 783 782 781 781 782 781 781 778 776
756 767 759 756 755 760 761 773 765 756 761 766 767 770 784 792 797 804 807 807 807 807 806 804 800 796 794 792 791 788 786 784 782 782 781 782 783 784 784 784 783 781 780 779 779 778 779 777 775
768 763 770 743 746 756 766 770 739 751 762 765 762 767 782 794 799 805 808 808 808 808 809 806 803 799 796 794 792 791 788 786 785 785 784 786 786 786 785 785 784 781 779 778 777 776 774 773 772
765 769 759 750 741 752 763 762 751 751 759 763 764 767 780 792 800 806 808 808 807 809 810 808 805 801 798 796 795 793 791 790 789 787 786 787 787 786 785 785 783 781 780 779 777 776 774 773 769
760 761 751 746 743 749 757 763 750 745 749 756 763 769 781 791 801 807 809 809 808 808 807 808 808 804 801 798 795 795 795 794 793 792 791 789 787 786 785 783 782 781 779 777 775 775 774 772 770
741 745 748 736 731 750 757 758 754 748 743 753 766 771 782 792 802 806 808 809 808 809 809 808 808 807 805 802 800 798 797 796 795 794 793 792 789 787 787 785 785 783 782 781 780 777 774 771 771
748 752 754 743 735 739 749 756 749 744 741 749 759 773 783 792 797 804 808 810 811 810 809 810 810 808 807 805 803 801 799 798 798 796 796 795 793 791 789 788 787 786 784 782 781 780 776 774 774
749 752 752 751 740 740 754 759 751 739 738 753 765 771 784 792 796 801 806 811 813 813 812 809 810 809 809 808 805 803 800 799 799 798 798 798 796 795 792 791 788 787 785 783 782 781 779 777 776
758 740 742 747 758 768 745 766 737 739 745 758 768 775 784 792 799 802 808 811 811 812 813 812 810 811 811 811 809 807 805 805 803 801 799 799 798 797 794 791 790 788 786 784 783 781 780 779 775
748 738 747 747 760 762 758 762 743 727 747 755 763 771 779 788 796 804 810 810 811 812 812 812 811 811 813 814 812 810 809 808 806 804 802 800 799 797 795 793 790 787 786 785 783 780 779 777 776
736 752 756 758 763 773 761 760 742 725 718 741 751 763 778 792 800 806 809 810 811 812 812 812 811 813 815 815 814 813 812 809 808 806 804 802 800 799 797 795 791 789 787 785 782 779 778 776 775
743 764 778 780 774 765 737 741 732 718 716 724 742 761 776 789 798 802 805 807 810 811 813 813 813 814 815 815 815 814 813 812 810 809 807 805 801 801 800 796 792 789 786 784 781 780 778 775 774
747 753 756 770 762 746 721 737 729 719 724 729 739 755 773 786 794 799 803 806 808 810 814 814 815 816 817 817 816 815 814 813 813 811 809 807 804 803 802 799 795 791 787 784 782 780 779 775 773
740 749 737 749 746 759 745 726 726 730 738 742 746 757 773 785 792 797 802 805 807 810 814 815 817 817 817 817 818 818 816 814 814 812 811 808 806 805 802 800 796 791 787 785 783 782 778 775 770
726 728 755 753 768 770 743 735 734 737 746 747 753 760 771 782 788 794 797 802 806 811 813 815 817 818 819 818 818 817 816 816 816 814 812 810 808 806 803 800 798 792 788 783 783 782 777 777 776
734 735 734 742 748 756 756 742 722 733 739 745 749 755 768 778 786 790 794 800 804 809 811 814 816 817 818 819 819 818 817 817 818 817 814 812 811 808 806 803 800 794 789 785 786 786 786 782 779
714 725 729 753 752 748 750 741 722 730 734 737 741 746 762 777 783 787 791 797 803 807 811 814 817 818 817 817 819 819 819 817 818 818 816 814 812 810 807 805 802 798 791 789 789 791 786 785 782
Wind_Speed
14 18 14 15 5 8 16 6 9 7 6 10 7 6 18 18 17 5 12 10 11 16 9 12 11 9 7 6 7 9 10 12 12 11 10 10 10 11 12 13 14 14 14 13 10 8 7 7 7
14 14 12 6 8 11 4 9 8 13 8 4 5 6 18 17 14 16 14 13 14 12 8 7 11 10 7 5 6 8 9 11 12 12 12 11 12 12 12 13 14 15 14 14 11 10 8 8 8
16 13 6 5 10 13 6 15 12 10 2 2 3 16 10 5 13 15 11 15 15 12 13 4 8 9 8 6 5 5 7 9 11 13 13 13 13 13 14 14 14 15 14 14 13 12 11 10 8
8 6 6 7 15 4 11 10 8 5 4 3 9 15 13 14 12 14 13 18 16 14 9 5 5 7 7 6 5 5 6 8 10 12 13 14 14 14 15 16 16 16 16 15 13 13 12 11 9
12 6 10 14 17 12 7 10 7 4 7 7 3 19 17 17 14 14 16 15 15 14 11 13 3 5 6 6 7 7 6 6 9 12 13 14 15 15 16 16 17 17 16 15 14 14 13 12 11
7 10 11 14 4 12 6 8 1 1 2 7 4 12 15 15 14 13 11 15 16 13 14 12 10 4 3 7 8 9 10 10 10 10 13 14 15 16 17 17 18 18 18 17 16 16 15 15 15
11 10 15 18 2 7 7 6 2 2 2 10 4 1 13 15 10 8 8 16 15 14 13 11 9 10 7 5 8 10 12 12 12 13 14 15 17 18 18 19 19 20 20 20 19 18 18 18 17
9 10 16 18 8 10 12 6 7 5 11 2 4 4 10 9 9 5 6 13 17 16 15 11 8 10 9 11 8 8 12 13 14 14 15 15 16 17 18 20 21 21 22 22 21 21 20 19 18
9 6 12 14 8 11 5 4 7 4 4 4 2 14 11 6 9 10 8 15 15 17 18 21 20 15 13 8 13 9 9 13 15 16 16 17 17 15 16 20 22 23 24 24 23 23 22 22 21
9 10 6 11 11 9 7 2 7 2 6 3 6 13 9 6 12 10 12 16 21 18 20 25 23 17 16 12 16 10 10 11 11 13 13 13 15 16 15 18 21 22 25 24 25 25 24 23 24
9 13 6 6 10 8 4 3 3 3 5 3 4 7 5 5 14 13 16 18 18 19 22 23 23 20 17 16 17 11 15 16 16 14 12 13 13 12 16 20 18 20 24 26 26 29 28 28 29
8 12 5 3 4 2 3 6 6 6 7 9 5 6 3 11 12 12 13 15 15 18 21 20 21 20 18 17 15 17 18 15 10 9 10 10 11 12 14 15 16 18 20 22 24 25 32 31 29
10 14 4 5 3 4 6 9 9 10 3 6 4 3 10 13 12 15 13 15 14 15 17 18 17 18 17 20 18 18 17 18 15 7 5 4 5 10 12 13 14 17 18 22 23 27 27 28 29
5 9 10 7 9 8 10 11 12 9 8 6 7 3 14 13 13 13 14 13 13 13 15 16 17 20 16 13 17 16 17 16 15 16 15 11 9 9 9 9 7 10 13 17 20 25 28 29 33
7 11 13 15 13 9 3 13 19 10 9 9 7 10 14 11 13 12 10 10 11 11 13 16 17 18 18 15 14 17 15 15 17 17 15 14 13 13 12 12 13 13 14 15 19 18 19 27 31
10 13 13 14 18 8 6 11 8 14 12 11 5 7 14 11 12 10 9 10 13 14 15 16 16 18 17 18 14 14 17 15 15 15 16 15 13 13 12 12 15 15 16 17 16 18 22 25 26
14 12 18 10 15 12 12 7 16 15 12 9 6 1 12 10 10 7 8 10 12 14 16 16 18 20 18 15 12 13 14 16 18 19 15 15 16 14 12 16 13 13 14 14 15 14 16 19 23
15 19 16 16 16 9 11 12 13 9 13 10 4 6 10 8 7 5 6 9 11 13 14 16 18 20 17 19 17 12 12 12 13 16 17 18 16 14 13 11 13 14 13 15 17 18 17 18 22
18 12 12 10 10 15 14 13 15 16 16 10 8 8 8 6 7 5 5 8 10 14 15 17 18 20 20 17 16 15 14 11 14 13 15 18 18 18 17 16 15 15 14 16 16 18 18 19 19
21 17 15 15 14 14 9 13 16 18 14 10 9 10 7 8 9 7 5 8 11 11 14 15 17 18 20 19 16 14 11 8 11 12 17 17 17 17 15 17 16 16 14 13 15 16 17 15 15
15 15 15 17 15 6 8 17 20 19 12 11 4 7 8 5 4 6 8 9 8 8 10 11 14 16 19 19 17 17 13 12 15 15 16 16 17 17 17 16 16 15 14 13 14 15 15 15 15
18 17 17 17 12 12 13 12 12 10 14 13 12 11 10 9 6 7 6 5 6 8 9 9 10 13 15 16 17 17 16 13 15 16 13 15 15 16 17 19 18 16 15 14 14 13 14 14 15
16 9 7 7 11 14 16 12 14 18 16 18 16 14 11 9 6 7 5 5 7 8 9 11 11 14 14 15 15 15 14 13 13 15 14 14 14 14 19 17 18 17 16 15 15 15 15 14 15
13 5 6 8 10 12 15 14 11 12 15 21 19 16 14 10 9 7 6 6 6 8 9 9 10 12 13 13 14 14 14 14 14 15 14 15 14 16 17 18 16 16 17 16 16 15 14 14 15
12 8 5 8 8 10 13 14 13 3 13 17 20 17 15 12 10 8 7 7 6 9 9 9 10 11 12 12 12 13 13 12 12 14 14 15 15 16 18 18 17 17 17 17 16 15 14 14 16
18 18 6 9 9 13 8 7 5 8 13 14 18 17 16 12 9 7 7 5 6 10 8 9 9 10 11 11 11 12 12 11 12 12 13 13 15 15 17 17 17 17 16 16 15 14 13 14 14
18 20 14 14 12 7 8 9 8 10 11 11 12 16 14 12 11 9 9 7 6 8 7 8 7 9 9 9 9 10 11 12 12 12 12 13 15 14 16 17 18 19 18 19 17 15 17 17 19
18 15 12 6 6 10 12 14 9 16 12 12 12 13 14 13 12 12 12 11 9 7 8 7 7 7 7 8 9 9 11 11 11 11 13 13 14 16 17 20 19 21 22 23 22 18 20 18 18
12 15 9 9 9 3 7 4 3 10 13 13 13 13 14 14 14 12 12 11 10 9 9 7 6 6 7 7 8 9 9 10 10 11 12 12 13 15 17 17 19 22 23 25 20 17 16 17 17
16 18 15 7 10 7 9 14 13 13 13 13 13 15 16 14 13 12 15 15 12 9 8 8 6 6 6 6 6 7 7 9 10 10 11 12 14 16 18 20 21 23 23 23 24 19 21 21 21
Wind_Direction
316 306 273 272 246 227 254 224 86 87 116 35 19 14 72 43 38 57 62 55 98 110 144 157 163 166 162 161 167 175 182 184 185 187 190 188 185 184 182 178 178 178 179 180 176 173 175 180 179
321 304 275 275 256 272 325 95 102 63 47 82 144 163 78 58 40 63 59 61 86 101 121 159 174 174 174 170 174 182 187 192 196 195 199 200 197 197 196 194 191 188 187 192 191 187 187 179 178
295 273 286 232 243 260 40 62 66 88 148 84 133 46 37 33 48 75 68 72 77 94 120 154 186 182 185 187 183 199 212 213 211 208 208 209 208 206 206 206 205 203 201 198 201 197 199 195 194
300 255 237 253 273 29 54 73 51 114 121 31 88 94 73 61 53 72 57 62 69 71 70 51 171 192 193 194 206 211 230 237 232 225 221 220 220 217 215 212 213 212 214 216 213 209 206 207 212
260 271 263 260 259 103 70 65 12 39 38 31 318 100 82 48 66 51 55 60 52 59 63 44 107 188 204 209 218 221 231 238 240 236 233 232 231 230 226 223 220 220 221 224 222 219 222 224 230
276 228 265 258 89 82 80 75 308 11 172 78 37 109 95 65 42 74 67 75 69 55 50 34 50 36 252 231 231 234 234 234 234 234 235 236 239 240 238 235 232 229 226 227 230 230 232 236 240
256 277 269 291 94 130 113 84 197 313 213 70 24 315 90 63 55 50 72 86 63 59 57 49 15 8 0 285 249 243 243 244 243 243 241 240 240 240 241 239 238 238 237 235 232 233 236 241 245
268 275 275 271 281 84 95 149 82 264 73 129 5 1 57 37 51 35 74 87 76 64 38 38 26 10 336 322 308 272 257 251 248 246 247 249 248 248 247 244 242 240 241 241 240 240 240 240 243
263 264 251 283 160 101 118 168 123 59 275 114 60 68 63 24 47 28 15 59 53 38 33 36 27 14 350 315 287 269 279 264 251 249 251 250 251 254 261 253 248 244 243 242 242 242 246 247 246
225 219 316 11 34 91 120 287 67 342 169 204 169 98 66 38 47 23 25 32 33 20 22 17 8 1 359 344 336 288 285 276 269 252 249 259 260 253 242 253 260 253 248 246 243 242 242 242 243
238 247 43 94 24 10 351 137 253 248 267 289 49 17 49 51 59 30 25 31 22 17 25 13 4 351 353 338 339 342 322 252 247 238 226 232 244 250 252 252 255 258 246 244 243 239 236 237 239
256 269 287 333 101 309 275 307 298 297 295 47 63 59 265 60 54 41 30 36 19 25 22 11 4 351 2 340 338 339 339 336 348 276 242 248 252 266 269 264 266 252 248 250 248 244 241 239 232
229 263 230 244 205 242 271 264 273 265 122 80 91 202 69 59 42 41 26 37 19 22 19 12 6 5 12 355 355 354 1 2 3 11 53 310 258 266 274 281 281 276 269 257 250 242 240 235 237
300 310 288 217 234 233 242 255 241 229 134 160 180 150 83 68 49 34 25 24 23 23 15 13 12 9 14 18 4 6 6 10 12 19 24 12 355 332 317 317 314 302 298 287 277 269 256 246 240
267 262 251 239 233 229 150 252 240 193 154 193 202 124 97 80 63 46 26 27 35 30 17 13 8 10 15 16 20 18 20 22 22 20 24 15 0 347 338 319 324 321 309 302 306 316 291 276 267
254 243 253 250 193 150 177 282 162 139 173 207 222 126 111 89 71 50 34 33 28 30 24 22 16 12 19 10 22 29 24 30 28 18 21 23 11 5 359 357 355 347 327 333 331 322 319 311 300
227 252 222 213 171 152 195 273 135 166 190 221 244 242 112 111 93 54 37 29 36 29 24 23 20 17 18 18 15 18 36 34 30 20 21 19 11 3 13 10 6 359 350 345 347 344 335 323 320
224 219 246 263 175 194 204 232 263 252 207 201 166 125 120 121 94 79 45 36 43 36 34 29 24 20 22 23 20 18 15 18 36 35 23 23 19 357 358 354 351 352 357 347 344 341 329 330 325
263 290 283 265 173 187 214 245 270 271 259 152 185 176 135 125 125 111 79 68 53 42 32 29 27 23 20 19 21 11 5 19 17 20 27 26 13 6 11 12 6 359 2 351 347 334 333 327 331
242 255 259 265 271 270 282 270 267 264 253 169 184 138 157 159 160 125 91 68 52 37 27 28 24 21 19 10 9 3 6 29 21 30 21 14 19 13 15 12 4 359 356 356 352 348 338 329 348
242 249 254 261 269 232 249 262 262 255 225 126 148 129 135 165 140 133 101 62 37 36 28 25 22 19 19 11 11 9 11 12 20 12 18 13 17 15 13 10 3 359 356 355 350 350 350 329 332
243 242 253 251 269 262 264 277 277 136 163 163 168 161 170 162 156 102 84 82 61 53 46 37 32 33 17 14 14 14 10 12 2 10 355 4 12 13 5 9 4 359 355 352 348 342 342 333 328
249 294 260 245 248 268 255 266 250 241 181 184 178 174 159 146 122 114 128 111 86 63 49 41 42 45 32 24 21 17 12 3 356 2 359 0 358 2 9 3 1 359 355 345 340 340 339 337 328
255 174 242 249 257 252 248 246 263 250 207 175 181 165 153 145 140 147 143 122 92 72 55 45 39 45 33 24 22 20 11 9 5 3 3 2 359 358 357 354 2 357 353 346 341 342 338 339 333
195 189 213 223 217 244 240 237 232 136 132 173 149 145 148 155 155 164 147 130 93 80 54 45 43 45 37 32 28 23 17 13 13 13 6 4 7 3 358 358 359 359 353 351 345 343 348 353 349
214 200 201 220 228 252 256 230 250 91 94 114 139 146 138 146 157 155 141 123 105 88 61 47 40 45 35 31 30 31 29 23 25 19 17 15 14 7 359 2 5 5 7 6 4 5 6 1 6
203 218 240 270 284 284 262 262 152 125 124 131 138 138 146 151 165 158 155 146 128 93 81 61 46 49 43 40 36 36 37 36 31 31 26 27 23 15 12 12 10 17 19 21 18 18 18 19 18
247 204 215 231 235 233 248 253 272 165 162 161 164 152 153 162 168 173 171 154 126 117 104 87 68 56 51 51 46 48 42 37 36 36 33 31 25 23 22 19 17 24 26 28 23 20 24 25 28
212 234 206 208 234 265 278 277 70 151 171 182 179 174 163 172 175 178 161 156 139 134 120 104 91 78 66 57 51 52 50 45 39 37 36 33 31 26 21 22 25 28 26 25 22 25 24 29 29
214 214 218 220 233 239 255 260 138 161 182 187 196 186 166 178 182 178 175 158 147 139 126 117 112 93 87 87 66 56 51 52 43 38 37 33 36 30 26 26 28 27 28 30 20 23 26 27 25